This demonstration page uses our WeatherBlox Daily Observations layout. Learn more.

Left ArrowRight Arrow

Hourly Observations for September 29, 2017

Temp ( °F °C ) Dew Point ( °F °C ) Humidity (%) Winds ( mph kmh ) Pressure ( in mb ) Visibility ( mi km ) Precip ( " mm )
12:51 am 00:51 Mostly Clear 72 22.2 57 13.9 59 59 SE 8 13 29.87 1011 10 16 N/A
1:51 am 01:51 Mostly Clear 71 21.7 57 13.9 61 61 SE 8 13 29.86 1011 10 16 N/A
2:51 am 02:51 Mostly Clear 72 22.2 58 14.4 61 61 E 13 20 29.86 1011 10 16 N/A
3:51 am 03:51 Cloudy 73 22.8 58 14.4 59 59 ESE 10 17 29.87 1011 10 16 N/A
4:51 am 04:51 Cloudy 73 22.8 58 14.4 59 59 ESE 9 15 29.88 1012 10 16 N/A
5:51 am 05:51 Cloudy 72 22.2 58 14.4 61 61 SSE 9 15 29.90 1013 10 16 N/A
6:51 am 06:51 Cloudy 71 21.7 59 15 66 66 SSE 10 17 29.93 1014 10 16 N/A
7:51 am 07:51 Cloudy 73 22.8 58 14.4 59 59 SE 15 24 29.95 1014 10 16 N/A
8:51 am 08:51 Cloudy 75 23.9 58 14.4 55 55 SE 12 19 29.95 1014 10 16 N/A
9:51 am 09:51 Mostly Cloudy 78 25.6 58 14.4 50 50 SSE 14 22 29.93 1014 10 16 N/A
10:51 am 10:51 Mostly Sunny 82 27.8 58 14.4 44 44 S 12 19 29.91 1013 10 16 N/A
11:51 am 11:51 Partly Cloudy 86 30 56 13.3 36 36 SSE 12 19 29.87 1012 10 16 N/A
12:51 pm 12:51 Sunny 88 31.1 56 13.3 34 34 SSE 14 22 29.84 1011 10 16 N/A
1:51 pm 13:51 Sunny 88 31.1 55 12.8 33 33 S 8 13 29.81 1009 10 16 N/A
2:51 pm 14:51 Sunny 88 31.1 54 12.2 31 31 S 9 15 29.78 1008 10 16 N/A
3:51 pm 15:51 Sunny 88 31.1 51 10.6 28 28 SE 8 13 29.76 1008 10 16 N/A
4:51 pm 16:51 Sunny 88 31.1 50 10 27 27 S 7 11 29.74 1007 10 16 N/A
5:51 pm 17:51 Partly Cloudy 86 30 51 10.6 30 30 SE 8 13 29.76 1008 10 16 N/A
6:51 pm 18:51 Mostly Cloudy 84 28.9 53 11.7 34 34 SSE 13 20 29.78 1009 10 16 N/A
7:51 pm 19:51 Clear 80 26.7 55 12.8 42 42 S 7 11 29.80 1009 10 16 N/A
8:51 pm 20:51 Mostly Clear 77 25 56 13.3 48 48 SSE 5 7 29.83 1010 10 16 N/A
9:51 pm 21:51 Cloudy 76 24.4 55 12.8 48 48 ESE 6 9 29.83 1010 10 16 N/A
10:51 pm 22:51 Clear 74 23.3 54 12.2 50 50 E 6 9 29.83 1010 10 16 N/A
11:51 pm 23:51 Clear 77 25 57 13.9 50 50 ESE 13 20 29.82 1010 10 16 N/A

Powered by AerisWeather